Regional Weather Roundup
Issued by NWS

Home | Current Version | Previous Version | Text Only | Print | Product List | Glossary On
Versions: 1 2 3 4 5 6 7 8 9 10 11 12 13 14 15 16 17 18 19 20 21 22 23 24 25 26 27 28 29 30 31 32 33 34 35 36 37 38 39 40 41 42 43 44 45 46 47 48 49 50
105
ASUS43 KDMX 300208
RWRIA

WEATHER ROUNDUP FOR IOWA
NATIONAL WEATHER SERVICE DES MOINES IA
900 PM CDT SUN MAY 29 2016

NOTE: "FAIR" INDICATES FEW OR NO CLOUDS BELOW 12,000 FEET WITH NO
SIGNIFICANT WEATHER AND/OR OBSTRUCTIONS TO VISIBILITY.

* - THESE STATIONS ARE NOT NWS STATIONS...THUS NOT UNDER NWS
QUALITY CONTROL.  THEY ALSO DO NOT REPORT WEATHER SUCH
AS PRECIPITATION OR FOG.

IAZ001>003-012>014-020>022-031>034-043>046-300300-
   NORTHWEST IOWA

CITY           SKY/WX    TMP DP  RH WIND       PRES   REMARKS
CARROLL *      CLEAR     75  57  53 CALM      30.01R
CHEROKEE *     CLEAR     66  59  77 CALM      30.01S
DENISON *      CLEAR     73  59  60 CALM      29.99S
LE MARS *      CLEAR     72  59  64 CALM      30.02R
ORANGE CITY *  CLEAR     73  54  49 CALM      30.03R
SHELDON *      CLEAR     72  54  53 CALM      30.01R
SIOUX CITY     CLEAR     76  56  49 NE5       29.99S
SPENCER        CLEAR     66  55  67 NW3       30.01R
STORM LAKE *   CLEAR     70  54  56 N5        30.03R
$$

IAZ055>058-069>071-079>083-090>094-300300-
   SOUTHWEST IOWA

CITY           SKY/WX    TMP DP  RH WIND       PRES   REMARKS
ATLANTIC *     CLEAR     75  59  57 CALM      30.01R
AUDUBON *      CLEAR     70  61  73 CALM      30.02S
CLARINDA *       N/A     73  64  73 MISG      30.01S
COUNCIL BLFS * CLEAR     77  59  53 SE5       30.00S
CRESTON *      CLEAR     75  63  64 CALM      30.03F
HARLAN  *      CLEAR     75  61  60 CALM      30.04S
LAMONI         CLOUDY    77  61  57 S3        30.02S
RED OAK *      CLEAR     73  64  73 CALM      30.00S
SHENANDOAH *   CLEAR     75  68  78 CALM      30.00S
$$

IAZ047>049-059>061-072>074-084-300300-
   CENTRAL IOWA

CITY           SKY/WX    TMP DP  RH WIND       PRES   REMARKS
AMES           CLEAR     71  61  70 SW9       29.99R
ANKENY *       CLEAR     75  55  50 CALM      30.00R
BOONE *        PTCLDY    75  57  53 SW5       30.00R
CHARITON *     CLEAR     75  63  64 CALM      30.02S
DES MOINES     PTCLDY    78  54  43 SW5       30.00R
GRINNELL*      CLEAR     72  57  60 SW5       30.02R
KNOXVILLE *    CLEAR     75  59  57 S5        30.00S
MARSHALLTOWN   PTCLDY    73  58  59 SW7       29.98S
NEWTON *       CLEAR     72  61  68 S7        30.00R
PELLA *        CLEAR     73  59  60 S3        30.02R
PERRY *        MOCLDY    73  57  56 SW5       30.01R
$$

IAZ004>006-015-016-023>025-035-036-300300-
   NORTH CENTRAL IOWA

CITY           SKY/WX    TMP DP  RH WIND       PRES   REMARKS
ALGONA *       CLEAR     68  55  64 W8        30.01R
CLARION *      CLEAR     72  55  56 NW8       30.00R
ESTHERVILLE    CLEAR     67  58  72 W3        30.00R
FORT DODGE *   CLEAR     73  52  46 N3        30.01R
MASON CITY     CLEAR     66  56  70 W7        30.00R
FOREST CITY *  CLEAR     68  52  56 W3        29.99S
WEBSTER CITY * CLEAR     72  57  60 NW8       29.98R
IOWA FALLS *     N/A     73  61  64 E3        30.01R
$$

IAZ007>011-017>019-026>030-037>042-050>054-066-300300-
   NORTHEAST IOWA

CITY           SKY/WX    TMP DP  RH WIND       PRES   REMARKS
CEDAR RAPIDS   PTCLDY    71  61  70 S3        29.98S
CHARLES CITY * CLEAR     70  59  68 W6        29.99R
CLINTON *      MOCLDY    72  60  66 SW6       30.01R
DECORAH *      CLEAR     70  59  68 CALM      29.96S
DUBUQUE        CLEAR     68  58  70 S5        30.00R
MONTICELLO *   PTCLDY    68  63  83 CALM      29.99R
OELWEIN *      MOCLDY    72  61  68 SW3       30.00R
WATERLOO       CLOUDY    73  58  59 CALM      29.97S
$$

IAZ064-065-067-068-078-300300-
   EAST CENTRAL IOWA

CITY           SKY/WX    TMP DP  RH WIND       PRES   REMARKS
DAVENPORT      PTCLDY    73  58  59 SW3       30.01R
IOWA CITY      CLEAR     75  57  53 SW5       30.00S
MT. PLEASANT * CLEAR     73  64  73 S5        30.02R
MUSCATINE *    CLEAR     72  61  68 SW5       30.00S
QUAD CITIES    CLEAR     73  57  57 SW6       30.00R
$$

IAZ062-063-075>077-085>089-095>099-300300-
   SOUTHEAST IOWA

CITY           SKY/WX    TMP DP  RH WIND       PRES   REMARKS
BURLINGTON     CLEAR     72  64  76 SW3       30.02R
FAIRFIELD *      N/A    N/A N/A N/A MISG        N/A
FORT MADISON * CLEAR     70  61  73 S3        30.03S
KEOKUK *       CLEAR     72  64  78 CALM      30.02R
OSKALOOSA *      N/A     73  57  56 SW5       30.02R
OTTUMWA        CLEAR     71  62  73 S5        30.01S
WASHINGTON *   CLEAR     70 -38   1 S5        30.02S
$$

ABBREVIATIONS USED IN REMARKS
   TC - TEMPERATURES IN CELSIUS
  WCI - WIND CHILL INDEX
   HX - HEAT INDEX
  VSB - VISIBILITY
$$





USA.gov is the U.S. government's official web portal to all federal, state and local government web resources and services.